{"data":{"norad_id":59653,"epoch":"2026-05-25T04:32:22.547040Z","epoch_age_seconds":48819,"freshness":"FRESH","line1":"1 59653U 24082Y   26145.18914985  .00008529  00000+0  31938-3 0  9997","line2":"2 59653  43.0024  67.5939 0000815 250.9928 109.0835 15.27550888116712","mean_motion":15.27550888,"eccentricity":8.15e-5,"inclination_deg":43.0024,"raan_deg":67.5939,"arg_perigee_deg":250.9928,"mean_anomaly_deg":109.0835,"bstar":0.00031938,"rev_number":11671,"period_min":94.268545245348,"perigee_km":482.57707545363,"apogee_km":483.69546299651,"semimajor_km":6861.2732692251,"source":"CELESTRAK","updated_at":"2026-05-25T13:38:19.017015Z"}}